Theta_e
295 296 296 297 297 296 296 296 296 297 297 297 297 298 298 299 299 299 299 301 301 304 303 305 306 306 307 308 312 311 315 317 316 320 320 320 320 320 321 323 322 323 322 321 319 321 324 319 318 319 315 315 314 313
294 295 296 296 296 296 296 296 296 296 296 297 297 298 297 297 298 298 298 299 299 300 301 303 304 304 306 307 306 305 311 313 321 317 316 316 319 317 316 321 320 323 319 320 319 320 317 317 315 315 313 314 313 311
293 294 295 296 296 296 296 296 296 296 296 297 297 297 297 297 298 299 297 298 300 299 300 299 301 303 303 303 304 302 307 316 313 315 319 320 317 315 319 317 323 322 317 319 320 322 323 321 317 314 314 313 311 309
294 295 296 296 296 296 296 296 296 296 296 296 297 297 297 298 298 299 298 297 298 299 303 301 303 303 304 304 303 303 304 309 312 312 315 318 318 314 317 317 318 319 319 321 321 324 322 320 318 314 314 311 310 308
295 295 296 296 296 296 296 296 296 296 296 296 297 298 298 298 297 297 296 295 295 299 302 301 301 302 303 303 301 302 304 304 309 312 316 319 315 313 311 312 314 317 318 321 322 321 319 319 316 314 313 312 310 309
295 295 295 296 296 296 296 296 296 296 296 297 297 298 298 297 297 296 295 300 299 299 301 301 301 302 302 302 303 303 305 305 308 310 312 314 314 314 315 314 312 314 315 315 318 317 318 318 315 313 312 310 310 308
295 295 295 296 296 296 296 296 296 296 296 296 297 297 297 296 297 296 295 300 300 297 302 302 301 303 305 304 304 306 308 308 308 310 311 312 313 312 312 314 314 315 315 315 318 318 320 317 316 311 310 310 310 308
294 295 295 296 296 296 296 296 296 296 296 296 296 296 296 296 296 296 295 295 295 296 301 303 302 302 304 306 310 306 309 308 308 310 310 312 310 312 314 313 313 316 319 318 318 318 317 313 311 309 310 309 307 306
295 295 296 296 296 297 296 296 296 296 296 296 296 296 297 296 295 295 299 296 296 298 302 301 303 304 302 306 308 310 308 312 307 312 311 311 312 313 314 314 313 316 319 319 317 314 314 314 311 310 309 308 307 306
295 296 296 296 296 296 296 296 296 295 296 296 296 296 294 297 299 300 301 297 298 300 301 302 302 301 301 303 308 310 310 313 312 311 308 312 314 310 311 312 313 314 316 316 316 315 314 313 312 310 310 308 308 306
296 296 296 296 296 297 297 296 296 295 296 296 294 293 297 298 299 298 299 300 298 301 299 299 299 300 298 305 308 307 311 312 316 312 312 311 310 312 310 311 312 310 314 317 316 316 314 314 312 310 309 308 307 306
296 296 296 296 297 297 297 296 296 296 295 295 296 297 297 298 300 301 302 302 303 300 299 299 299 298 298 298 307 309 313 313 317 312 313 313 310 308 310 311 311 310 311 316 315 315 313 313 311 310 309 308 307 307
295 297 296 296 296 296 296 296 297 296 296 296 296 297 298 299 299 301 301 305 303 302 302 302 303 300 298 301 305 309 312 312 311 314 314 312 310 310 309 310 311 311 311 314 314 315 314 313 312 310 309 309 307 306
295 296 296 296 296 296 296 297 296 296 296 294 297 297 298 299 302 304 305 305 304 302 304 304 305 303 301 305 305 310 310 310 315 313 313 310 312 312 312 314 312 312 312 313 314 314 314 313 312 311 310 309 307 305
296 296 296 297 297 296 295 295 296 296 296 295 299 298 298 299 300 300 301 303 304 305 305 304 303 306 305 306 305 307 311 312 312 310 307 310 310 311 312 313 312 311 313 314 314 314 314 313 311 309 308 308 307 306
296 295 296 295 295 296 296 296 295 296 296 297 297 298 297 298 300 300 301 301 303 305 305 306 309 308 309 307 307 309 310 311 309 308 309 309 309 309 310 312 312 311 313 313 314 314 313 311 309 307 307 307 307 307
296 296 296 295 296 296 295 295 295 294 294 296 297 295 297 296 296 297 301 301 302 307 308 307 309 312 308 309 309 306 309 313 313 310 307 307 308 308 309 313 312 312 311 311 311 311 310 308 307 306 305 306 307 307
296 296 296 295 295 296 296 297 296 295 297 297 296 294 293 293 296 297 300 301 304 306 308 308 308 308 312 313 312 311 306 304 306 310 309 308 307 307 309 311 311 311 310 310 310 308 307 307 306 305 305 306 307 306
296 295 295 295 296 296 294 295 296 296 296 294 293 293 293 294 294 298 299 300 303 304 307 306 308 309 310 308 308 306 304 308 307 309 309 309 309 311 314 312 310 309 309 309 309 309 307 307 306 306 306 306 305 306
296 295 296 296 296 296 297 295 296 296 297 294 293 294 295 297 298 299 298 300 302 304 306 306 307 308 308 307 306 306 308 309 308 308 310 310 310 313 314 310 310 310 309 308 306 306 306 305 306 306 306 306 305 306
295 295 295 295 296 296 295 294 296 295 295 296 298 299 300 300 299 299 301 301 303 303 304 305 305 304 305 306 307 307 308 308 306 307 310 311 311 313 311 309 309 309 308 307 306 305 306 305 306 306 306 306 306 307
297 295 296 296 296 297 296 295 294 293 295 298 299 299 299 300 299 300 300 301 302 303 302 304 305 307 309 307 306 306 306 306 308 309 310 310 312 312 311 309 308 307 307 306 306 306 305 306 307 306 306 306 306 307
296 296 296 297 298 296 294 295 296 297 300 301 300 300 300 299 301 303 303 304 304 303 304 305 307 306 304 305 306 308 308 307 309 312 312 313 312 311 309 309 307 307 305 306 307 307 306 307 307 306 306 306 306 307
296 297 298 298 299 298 298 299 300 300 300 300 301 303 303 303 305 305 307 307 306 306 306 305 304 302 302 302 303 304 309 309 309 311 313 311 310 309 308 308 308 308 308 308 308 307 306 307 307 306 306 306 306 306
298 296 298 298 298 300 302 303 304 305 303 303 303 304 304 303 305 307 308 307 305 306 303 302 302 302 302 301 303 306 311 311 312 312 310 309 307 306 306 305 306 305 307 306 305 305 305 306 306 306 306 306 306 306
299 297 295 300 302 303 303 304 304 304 303 304 304 304 302 304 307 308 306 303 303 302 300 301 301 300 300 301 303 305 307 310 311 310 308 308 308 306 306 305 304 305 306 308 306 305 305 305 305 305 305 306 305 306
297 298 298 298 299 300 299 299 300 302 304 304 303 303 300 305 307 307 306 305 304 304 303 303 304 302 301 302 305 306 307 309 311 311 310 307 307 307 307 305 304 306 306 306 305 305 304 304 304 304 305 305 305 306
298 299 301 299 300 299 301 301 302 304 303 302 301 304 305 305 304 304 302 305 306 304 305 306 306 305 304 305 305 306 309 311 311 310 309 308 308 308 308 307 307 307 306 306 305 304 304 304 304 304 304 304 305 306
298 297 299 301 301 301 301 301 303 303 301 301 302 305 305 304 303 303 305 306 307 305 305 304 305 306 308 309 310 310 310 310 307 305 305 303 303 306 308 307 307 307 306 305 305 304 304 304 304 304 304 304 305 306
297 298 300 302 303 302 302 299 299 300 300 300 299 300 300 301 304 304 305 306 305 304 305 305 305 306 306 307 309 310 311 311 308 306 304 303 305 307 307 307 307 306 306 306 305 305 305 304 305 305 305 306 306 306
297 297 298 299 301 300 300 298 299 300 299 297 299 300 301 301 303 305 306 306 306 305 305 304 305 306 306 307 307 307 306 307 307 307 308 307 307 306 307 307 307 306 306 305 305 305 304 304 305 306 306 305 306 305
298 299 300 301 299 298 298 299 300 300 300 300 301 300 300 301 303 303 304 305 305 305 305 305 304 305 307 309 309 309 309 307 307 307 307 306 306 306 306 306 306 305 305 304 304 304 304 305 305 305 305 303 302 300
295 295 298 298 296 298 298 300 301 302 301 301 301 302 302 302 305 302 303 304 303 305 306 306 305 304 308 309 310 308 308 307 306 307 306 306 306 306 306 306 305 305 304 304 304 304 304 304 305 305 302 299 299 299
Wind_Speed
21 19 18 18 18 18 17 17 17 16 17 17 16 16 16 15 15 15 10 4 7 3 6 5 3 2 4 0 1 5 4 3 4 3 3 4 3 5 4 5 6 7 7 4 3 3 6 5 4 7 6 2 6 6
22 20 20 19 19 18 17 17 17 17 16 16 16 14 15 14 13 13 6 12 15 6 6 18 24 28 20 13 2 3 3 2 2 2 1 2 2 1 5 4 2 2 7 6 7 6 5 4 4 1 6 7 6 7
23 22 21 20 20 19 19 18 17 17 16 16 15 14 14 14 12 10 10 14 7 3 6 3 7 12 16 27 28 4 3 3 0 2 2 1 4 4 4 5 4 1 3 4 4 4 4 4 3 5 5 6 7 6
23 22 22 21 21 20 19 19 17 17 16 15 14 14 14 13 13 13 11 11 10 6 4 6 8 13 5 5 16 33 15 4 3 2 1 1 2 2 4 3 5 5 6 6 1 2 3 4 2 8 5 7 9 9
25 24 23 23 22 21 20 19 18 17 16 15 15 15 14 14 14 17 22 23 17 5 3 7 23 24 8 15 24 28 22 5 1 2 1 3 2 1 1 1 2 4 7 5 5 9 7 7 6 8 10 10 14 13
25 24 24 23 22 22 21 20 18 17 16 15 15 15 13 13 12 12 3 7 9 6 3 4 6 5 12 11 13 13 14 4 4 4 4 3 2 1 1 3 4 4 4 6 5 6 5 2 9 6 8 13 11 11
25 25 24 24 24 23 22 20 19 17 16 15 14 14 13 12 11 4 4 4 4 13 2 4 5 5 7 6 5 3 9 4 4 3 2 2 2 2 1 2 5 5 7 5 4 9 4 4 7 8 11 16 17 13
26 26 27 26 26 24 22 20 19 16 15 14 14 13 13 13 14 12 25 21 17 6 4 3 5 5 7 3 3 3 4 2 0 4 2 2 2 2 4 7 5 4 4 6 9 1 5 9 13 9 17 18 12 10
27 29 28 27 25 24 23 20 18 15 13 12 10 10 12 5 4 5 12 2 14 4 2 2 2 4 7 3 3 1 2 2 0 3 4 4 3 6 7 8 7 8 8 9 6 8 13 12 13 13 12 10 12 9
30 29 26 25 24 22 20 20 17 13 10 6 3 2 2 5 12 10 4 2 2 3 3 3 1 4 3 4 3 1 2 3 3 4 2 4 10 3 5 7 8 10 8 12 8 6 8 12 15 16 15 12 13 15
27 23 24 25 22 21 21 18 17 12 6 4 3 3 4 5 3 1 2 2 3 3 4 4 6 5 2 2 3 1 2 0 3 3 4 3 3 8 13 13 8 7 9 12 9 15 17 19 16 13 10 13 18 20
21 24 22 17 15 16 17 17 17 15 8 6 3 7 4 1 2 3 3 3 4 5 2 3 4 4 3 3 2 2 1 1 4 1 1 3 4 6 12 18 18 9 10 11 11 13 13 19 23 19 19 18 21 23
17 16 10 5 7 11 14 15 17 16 9 1 1 2 1 2 3 5 4 2 3 3 3 2 3 3 2 1 2 3 4 4 1 1 3 4 4 6 5 6 14 10 11 10 7 16 22 21 22 24 20 20 24 24
11 11 7 2 4 8 10 14 15 15 4 2 3 3 3 4 3 0 2 2 4 3 2 3 3 4 3 3 3 4 4 3 2 2 5 3 3 5 5 4 3 6 9 13 14 19 21 23 20 21 24 28 27 22
11 4 3 5 5 9 10 12 18 13 3 2 2 3 4 1 1 6 5 3 3 2 3 3 3 3 3 3 3 1 1 3 5 5 4 3 3 5 6 4 5 6 8 12 16 16 20 23 21 19 24 27 25 24
13 7 8 5 7 10 15 18 11 4 1 2 3 3 4 2 3 3 3 3 2 3 1 1 2 2 4 3 3 6 4 5 3 3 3 4 4 6 7 7 6 6 10 12 20 24 24 24 23 22 25 25 25 28
3 3 3 8 10 14 16 5 4 2 2 2 4 4 5 4 5 4 2 3 2 3 2 1 1 4 1 2 3 2 1 2 5 6 4 4 6 7 8 11 6 9 11 17 21 22 21 23 28 25 18 21 25 25
5 5 7 9 12 11 2 0 2 2 5 4 3 3 3 4 3 4 4 2 2 2 1 1 1 3 2 1 1 1 3 3 4 5 5 5 5 6 13 8 6 14 18 23 25 26 27 26 20 15 24 27 24 21
4 5 7 8 2 1 2 2 3 3 5 2 4 3 3 4 4 4 3 4 5 3 1 2 3 3 2 3 4 2 3 2 3 5 5 6 8 8 13 4 14 14 22 25 25 21 21 24 24 26 28 27 21 24
4 4 6 3 2 2 2 3 3 2 3 3 3 4 3 3 3 3 3 2 1 1 2 2 3 3 3 2 4 3 1 6 3 3 4 3 5 5 5 10 12 19 23 24 22 26 24 21 24 29 29 27 25 23
4 2 4 4 2 4 2 2 3 3 3 2 3 2 3 2 3 2 2 0 1 2 2 3 3 3 3 2 3 6 6 4 4 3 4 3 3 6 8 14 20 16 15 20 16 15 19 20 26 28 28 26 25 24
2 3 2 3 2 3 3 6 3 3 2 3 3 2 3 3 2 2 1 1 2 3 3 2 3 2 3 3 3 6 9 8 10 9 9 5 2 5 4 12 15 8 13 17 20 18 18 26 29 27 24 22 21 19
3 2 3 3 3 1 5 1 2 3 2 3 3 3 2 2 2 0 2 2 3 3 4 3 4 3 1 6 9 9 5 3 0 3 5 11 13 13 13 16 18 17 12 14 25 26 26 29 28 26 23 22 21 19
3 2 2 2 3 3 1 2 2 2 2 2 2 3 2 1 1 2 1 2 3 3 3 4 4 3 4 5 3 4 6 1 3 7 11 13 6 7 16 18 23 22 24 25 25 25 27 27 27 26 25 23 20 21
2 3 2 4 3 3 3 2 3 2 3 3 2 3 2 1 2 1 1 2 1 3 3 4 4 2 2 3 3 11 11 7 1 4 9 16 14 15 17 19 17 18 24 25 20 23 24 26 27 26 25 22 23 21
3 2 3 3 2 2 1 2 3 2 2 2 1 2 2 2 4 3 3 2 2 2 2 1 2 2 3 2 3 4 13 17 11 6 11 19 22 19 10 8 5 9 18 23 26 25 23 21 21 19 18 19 20 22
2 3 2 2 3 3 3 2 2 1 3 3 3 4 2 3 3 1 3 2 3 6 6 1 3 3 4 7 7 6 8 6 4 6 7 9 15 22 28 22 14 18 18 19 20 21 21 19 17 16 15 15 18 23
3 2 2 4 3 2 3 3 3 3 2 3 2 6 3 2 1 3 3 5 8 8 5 5 9 13 11 5 3 6 5 7 5 6 17 16 13 11 13 17 21 20 19 17 17 17 18 19 17 16 16 17 17 22
3 2 1 4 2 2 2 2 1 1 2 1 3 3 2 2 3 2 6 7 6 3 7 15 20 15 11 5 4 4 5 6 8 7 9 5 5 11 17 20 19 18 17 16 15 15 16 15 16 15 16 17 18 22
3 2 1 2 2 2 3 2 2 2 2 3 2 2 3 3 5 8 3 2 1 5 7 10 14 15 13 13 10 6 2 1 16 18 7 5 9 18 18 18 19 20 18 17 19 17 15 17 16 16 17 18 24 28
2 1 2 2 2 2 3 4 3 1 1 2 1 2 2 2 4 15 16 8 6 7 10 15 15 12 14 15 11 8 7 8 12 10 20 21 19 17 16 16 19 20 20 19 21 19 19 18 18 20 21 22 24 27
2 1 1 2 3 5 5 4 2 3 4 3 2 2 3 3 3 5 23 9 13 15 17 15 12 7 7 7 8 6 4 10 11 18 19 19 16 14 15 16 17 18 20 21 21 19 17 20 19 20 22 22 29 32
3 2 2 1 3 3 3 3 3 3 3 2 2 1 1 3 4 4 13 20 16 16 19 16 9 4 2 6 8 4 11 16 20 20 19 18 17 15 13 13 14 16 18 19 19 17 18 20 21 24 27 30 30 32
Wind_Direction
318 315 313 310 311 310 312 314 313 312 314 318 320 320 326 335 343 346 309 19 359 291 279 249 317 322 337 338 279 306 350 333 20 89 141 208 165 215 125 169 174 160 149 175 99 98 278 181 68 173 202 51 143 140
311 307 306 307 306 308 309 309 310 312 311 312 317 315 319 321 331 341 308 314 329 227 258 291 273 262 244 239 49 309 248 270 212 84 15 92 223 101 152 207 90 169 177 180 167 206 237 224 208 183 149 143 155 130
304 302 301 300 299 302 303 305 302 304 307 307 309 310 312 317 318 324 304 307 318 285 285 310 248 287 256 239 228 192 267 223 36 167 154 245 246 126 159 232 143 210 151 128 96 239 232 203 102 143 156 139 139 133
301 300 297 297 297 296 298 297 298 295 299 300 304 308 307 308 307 308 296 282 296 271 273 284 320 293 280 165 209 216 246 356 77 40 128 193 221 160 222 200 163 192 135 143 187 348 55 329 260 160 123 110 108 121
298 295 293 292 290 290 292 293 292 290 290 292 297 301 303 304 306 303 296 280 257 229 294 291 299 287 288 248 226 220 220 226 74 300 223 235 248 55 273 62 220 188 166 151 209 197 168 207 182 154 144 159 154 143
294 295 293 289 289 287 283 285 285 286 283 284 289 296 294 298 309 331 331 34 111 200 279 296 286 280 279 264 209 193 198 167 174 170 219 261 259 91 260 217 258 219 195 162 193 178 165 131 146 139 144 147 148 143
295 294 292 289 287 283 280 274 277 277 277 279 284 290 289 290 284 236 231 173 354 344 268 297 294 273 286 227 175 143 166 190 152 183 217 223 295 89 199 209 250 232 209 177 129 112 61 170 181 146 134 134 136 134
294 294 293 288 282 277 273 267 265 268 267 273 279 283 286 289 285 265 270 264 260 260 273 267 274 321 4 292 189 156 133 139 144 176 96 165 326 147 248 233 229 244 129 128 160 147 159 114 115 109 127 126 126 136
300 297 289 285 281 273 263 259 252 252 256 267 278 284 287 239 241 250 319 230 185 201 279 239 254 274 347 318 302 30 95 118 23 158 201 141 222 225 205 209 203 192 170 174 115 121 128 132 135 136 137 139 138 149
303 298 290 284 275 265 255 246 237 232 246 256 256 258 259 222 310 303 245 100 174 198 223 251 209 267 356 345 313 18 356 161 150 232 119 214 236 234 258 249 215 187 181 129 108 102 116 143 156 165 172 164 161 161
306 300 295 286 269 253 238 231 218 205 196 185 190 230 280 297 290 231 223 176 199 236 214 226 207 235 277 237 276 269 209 106 160 230 176 239 271 220 219 254 250 223 173 181 174 175 177 167 165 159 156 158 156 159
304 307 302 285 253 226 221 209 196 180 182 187 245 287 281 344 231 241 224 201 200 226 232 183 223 187 252 199 200 273 186 276 218 120 154 263 246 240 205 214 228 223 181 192 171 163 158 162 166 163 158 161 168 171
325 330 317 291 227 217 200 194 188 188 167 203 230 296 190 215 245 202 221 206 224 207 226 232 251 209 277 215 231 174 185 218 40 162 234 233 278 339 321 258 227 215 174 177 174 174 158 158 160 159 163 168 168 170
346 346 356 112 158 181 183 178 172 170 158 133 201 244 209 228 241 103 282 248 254 239 287 255 225 189 196 168 198 176 214 126 194 190 241 231 266 304 300 295 301 219 181 167 169 164 157 157 162 164 168 169 165 165
6 0 38 93 125 134 137 158 163 159 146 169 226 239 235 232 31 258 254 278 298 301 288 273 256 163 191 220 206 107 139 226 201 232 236 235 284 305 307 293 293 237 181 173 168 161 157 154 152 148 163 167 168 163
9 48 59 95 116 136 139 142 148 166 244 214 230 262 253 269 241 283 267 251 230 250 272 228 301 195 209 193 145 207 172 209 244 244 283 314 316 298 296 292 279 226 172 161 161 158 151 152 151 147 154 162 168 169
22 37 74 118 126 135 139 121 157 184 219 245 249 220 249 271 256 250 237 250 252 314 267 249 222 234 166 212 213 137 144 338 316 296 276 286 281 293 296 284 256 166 146 146 138 138 135 135 135 134 135 154 164 169
49 81 117 129 141 147 169 105 173 200 243 236 238 253 209 224 249 257 243 243 235 209 260 254 357 252 216 12 72 239 240 243 255 267 279 276 278 292 294 288 136 155 148 140 136 131 131 135 136 137 142 156 158 164
90 114 135 140 125 166 170 250 191 245 242 249 259 250 231 253 237 220 240 259 242 236 179 254 228 247 197 189 227 254 272 238 294 295 293 289 257 264 290 139 113 132 132 127 131 134 139 142 143 143 149 156 155 165
93 157 181 196 292 315 264 272 205 248 271 251 265 271 218 234 291 272 256 239 171 133 250 243 244 264 204 208 193 170 254 283 279 293 283 272 242 293 301 124 117 126 118 110 110 121 114 116 139 151 158 163 157 165
342 258 241 275 275 232 252 279 266 226 275 275 269 261 267 271 293 307 300 75 89 208 247 245 256 271 250 222 221 231 256 230 240 235 270 288 265 87 93 105 109 117 131 124 125 123 132 143 155 161 164 166 167 169
285 237 266 234 263 239 233 223 216 271 279 259 296 229 278 287 270 241 192 75 250 250 226 276 289 299 21 331 297 291 283 265 252 271 270 238 150 115 126 117 121 127 120 129 137 140 143 155 160 162 162 162 165 165
276 232 250 242 240 253 260 212 239 242 249 268 320 279 254 266 250 142 14 265 256 239 270 282 299 41 43 305 332 354 329 274 129 351 22 87 97 122 118 114 123 123 122 130 149 150 153 161 161 158 156 158 162 163
243 249 224 249 219 240 273 237 230 256 269 269 248 274 286 215 179 181 202 298 297 306 344 338 12 357 336 346 351 315 332 65 138 46 76 94 86 84 123 125 135 145 149 152 157 158 160 165 166 162 160 160 164 168
278 258 215 253 216 240 232 210 202 237 261 257 297 293 299 17 48 326 117 254 291 322 351 41 45 3 302 313 310 342 22 16 337 110 133 144 127 107 88 100 120 137 151 145 138 149 160 166 168 166 168 166 163 171
270 261 187 290 307 254 254 263 234 247 243 277 284 306 6 33 31 2 299 287 299 280 281 234 259 325 325 349 306 354 353 3 15 65 125 144 140 132 129 125 117 134 159 155 148 143 146 150 154 160 168 176 174 170
290 290 280 274 297 304 309 314 306 347 4 360 333 340 20 60 44 195 284 244 248 273 283 290 317 329 296 324 324 340 350 359 40 44 57 126 136 144 149 148 156 155 156 154 157 157 155 153 153 157 161 169 176 172
255 249 256 284 312 252 287 318 4 353 314 311 2 23 43 38 336 253 243 281 282 288 301 328 330 337 330 324 323 329 50 70 95 100 115 115 110 127 132 134 132 141 152 154 155 162 161 158 157 160 161 157 152 159
263 269 277 293 283 295 262 251 297 260 221 94 75 325 304 250 251 259 290 288 307 286 353 340 339 3 23 76 94 132 116 108 126 109 111 111 90 109 133 135 139 142 142 143 146 148 154 150 150 150 155 156 151 153
270 192 286 284 304 284 282 196 256 254 197 202 199 4 353 299 308 346 276 238 197 67 40 340 349 7 14 30 31 52 98 174 165 145 141 151 145 144 150 150 150 148 145 137 133 134 139 138 137 137 140 138 138 132
272 318 286 273 278 277 263 285 286 321 44 55 30 138 238 286 357 31 32 41 80 59 28 4 353 7 16 24 26 26 50 128 172 164 145 139 146 154 157 157 157 155 151 144 136 132 136 144 145 142 134 128 133 135
303 226 65 308 305 295 343 18 356 19 352 17 325 345 353 35 60 26 4 9 25 21 12 354 335 321 16 25 24 23 157 150 158 149 140 141 139 140 142 145 151 154 151 146 147 151 152 150 148 139 124 122 129 132
300 319 227 266 324 315 306 6 12 360 5 333 302 308 220 125 77 360 2 16 7 350 347 339 320 276 16 34 26 84 157 153 157 152 149 144 142 139 132 132 136 148 151 145 145 149 150 145 132 128 125 121 124 130